This is the latest recevied weather packets stored in our database for station/object WA3NOA-2. If no packets are shown the sender has not sent any weather packets the latest 1 day(s).
| Time | Temp. | Humidity | Pressure | Rain* | Wind** | Luminosity | Snow |
|---|---|---|---|---|---|---|---|
| 1778044927 | 18.89° C | 66% | 1003.7 hPa | 0 mm | 2.24 m/s, 251° | - | - |
| 1778044688 | 18.89° C | 66% | 1003.8 hPa | 0 mm | 0 m/s | - | - |
| 1778044627 | 18.89° C | 66% | 1003.8 hPa | 0 mm | 0.45 m/s, 267° | - | - |
| 1778044327 | 18.89° C | 66% | 1003.7 hPa | 0 mm | 0.89 m/s, 251° | - | - |
| 1778044027 | 18.89° C | 66% | 1003.9 hPa | 0 mm | 0.45 m/s, 250° | - | - |
| 1778043789 | 18.89° C | 65% | 1003.8 hPa | 0 mm | 1.34 m/s, 269° | - | - |
| 1778043727 | 18.89° C | 65% | 1003.8 hPa | 0 mm | 0.45 m/s, 263° | - | - |
| 1778043427 | 18.89° C | 65% | 1003.8 hPa | 0 mm | 0 m/s | - | - |
| 1778043127 | 18.89° C | 65% | 1003.9 hPa | 0 mm | 2.24 m/s, 240° | - | - |
| 1778042888 | 18.89° C | 65% | 1003.8 hPa | 0 mm | 0.45 m/s, 263° | - | - |
| 1778042827 | 18.89° C | 65% | 1003.9 hPa | 0 mm | 0 m/s | - | - |
| 1778042527 | 18.89° C | 64% | 1003.8 hPa | 0 mm | 1.79 m/s, 240° | - | - |
| 1778042227 | 19.44° C | 64% | 1003.8 hPa | 0 mm | 2.68 m/s, 283° | - | - |
| 1778041988 | 19.44° C | 64% | 1003.8 hPa | 0 mm | 0 m/s | - | - |
| 1778041926 | 19.44° C | 63% | 1003.8 hPa | 0 mm | 0.45 m/s, 264° | - | - |
| 1778041626 | 19.44° C | 63% | 1003.9 hPa | 0 mm | 0 m/s | - | - |
| 1778041327 | 19.44° C | 63% | 1003.8 hPa | 0 mm | 0.45 m/s, 254° | - | - |
| 1778041088 | 19.44° C | 62% | 1003.8 hPa | 0 mm | 1.34 m/s, 265° | - | - |
| 1778041026 | 19.44° C | 62% | 1003.9 hPa | 0 mm | 2.68 m/s, 239° | - | - |
| 1778040727 | 19.44° C | 62% | 1003.9 hPa | 0 mm | 0.45 m/s, 281° | - | - |
| 1778040427 | 20° C | 62% | 1003.8 hPa | 0 mm | 1.79 m/s, 286° | - | - |
| 1778040189 | 20° C | 61% | 1003.8 hPa | 0 mm | 1.79 m/s, 267° | - | - |
| 1778040127 | 20° C | 61% | 1003.8 hPa | 0 mm | 0.89 m/s, 259° | - | - |
| 1778039826 | 20° C | 61% | 1003.7 hPa | 0 mm | 1.34 m/s, 290° | - | - |
| 1778039527 | 20° C | 61% | 1003.8 hPa | 0 mm | 3.58 m/s, 268° | - | - |
* Rain latest hour (hover to see other rain measurements)
** Current wind speed in m/s (hover to see current wind gust speed)